COSMOS 2251 DEB, 35830

Orbit data source: Space-Track

COSMOS 2251 DEB, 35830 is space debris in LEO originally from a launch on Wed, 16 Jun 1993 UTC launched from the Plesetsk Missile And Space Complex (PKMTR). The debris from Iridium 33, an American commercial communications satellite, has been tracked extensively since its accidental collision with the defunct Russian satellite Cosmos 2251 in 2009. This event, occurring at high speed in low Earth orbit (LEO), generated thousands of pieces of space debris, significantly increasing the risk of further collisions. The Iridium 33 debris cloud has impacted space traffic management and orbital debris mitigation strategies, making it a subject of ongoing study in space situational awareness.

Loading next visibility...
Identifier
35830, 1993-036ATC
Orbit
LEO
Country
Flag of CISCIS
Related business
Manufacturer
Unknown
Mission
Spacecraft
Bus & Motor
Unknown
Mass
Unknown
Launch date (UTC)
1993-06-16 (33 years ago)
Launch vehicle
Unknown
Launch site
Plesetsk Missile And Space Complex (PKMTR)
Object type
Payload
Rocket body
Debris
Shape & HBR
Unknown shape, 0.1 m
Radar Cross Section
Small (<0.1 m²)

Expand to show TLE details & history
Last TLE update: 4 days ago

TLE from 4 days ago
0 COSMOS 2251 DEB
1 35830U 93036ATC 26067.44044622  .00004819  00000-0  19323-2 0  9999
2 35830  73.8585 110.3638 0117017  60.9024 300.3779 14.24839776624841
Epoch: 2026-03-08T10:34Z
TLE epoch observation values (Epoch: 2026-03-08T10:34:14.553Z)
Latitude
0.00006°
Longitude
145.65547°
Altitude
769.82 km
Speed
7.491 km/s
True Right ascension
07h 21m 27s
True Declination
0° 00' 00"
Sunlit
Object was in full shadow at epoch
Visualization orbit readout
Latitude
Unknown
Longitude
Unknown
Altitude
Unknown
Speed
Unknown
Apparent Right ascension
Unknown
Apparent Declination
Unknown
Sunlit
N/A
Visualization observer readout
Local Sidereal Time
19:55:56
Azimuth
Unknown
Elevation
Unknown
Doppler factor
Unknown
Orbital elements
Apogee altitude
890.757 km
Perigee altitude
722.608 km
Semi-major axis
7,184.819 km
Eccentricity
0.0117
Inclination
73.8585°
RAAN
110.3638°
Arg. of periapsis
60.9024°
True anomaly
299.21254°
Mean anomaly
300.3779°
Eccentric anomaly
299.79608°
Mean motion
3.56385 °/min
Orbital period
101.01 mins
BSTAR
0.0019323
Loading maneuver chart data...
Computing Atmospheric mass density...

Documentation

Showing up to 5 results
|